Flag for Germany Weather past 2 weeks in Norden, Lower Saxony, Germany

Now
47 °F

Partly sunny.


Feels Like: 44 °F
Forecast: 44 / 51 °F
Wind: 7 mph from North

Location: Norderney

Current Time: Apr 18, 2015 at 2:58:30 PM

Latest Report: Apr 18, 2015 at 2:00 PM


Visibility: 14 mi

Pressure: 30.40 "Hg

Humidity: 81%

Dew point: 42 °F

Location of NordenLocation

Historic Weather in Norden — Graph

°F

Norden temperature yesterday

Maximum temperature yesterday: 47 °F (at 5:00 PM)
Minimum temperature yesterday: 44 °F (at 3:00 AM)
Average temperature yesterday: 46 °F

Past Weeks' High & Low Weather Summary

 TemperatureHumidityPressure
High57 °F (Apr 11, 1:00 PM)100% (Apr 8, 4:00 AM)30.58 "Hg (Apr 8, 4:00 AM)
Low38 °F (Apr 9, 8:00 AM)49% (Apr 12, 3:00 PM)29.88 "Hg (Apr 11, 8:00 AM)
Average46 °F81%30.24 "Hg
* Reported Apr 3 1:00 PM — Apr 18 1:00 PM, Norden, Weather by CustomWeather, © 2015

Note: Actual official high and low records may vary slightly from our data, if they occured in-between our weather recording intervals... More about our weather records

Advertising

Norden weather history for previous 24 hours

 ConditionsComfort  
Time TempWeatherWind HumidityBarometerVisibility
1:00 PM
Sat, Apr 18
47 °FSunny.5 mph82%30.40 "Hg7 mi
12:00 PM46 °FPassing clouds.6 mph84%30.40 "Hg5 mi
11:00 AM46 °FPassing clouds.7 mph86%30.40 "Hg19 mi
10:00 AM46 °FPassing clouds.7 mph85%30.39 "Hg7 mi
9:00 AM46 °FSunny.8 mph87%30.38 "Hg7 mi
8:00 AM45 °FSunny.8 mph84%30.37 "Hg10 mi
7:00 AM45 °FSunny.9 mph79%30.35 "Hg16 mi
6:00 AM45 °FClear.9 mph83%30.34 "Hg18 mi
5:00 AM45 °FClear.9 mph82%30.33 "Hg16 mi
4:00 AM46 °FClear.8 mph79%30.32 "Hg15 mi
3:00 AM46 °FClear.9 mph80%30.32 "Hg14 mi
2:00 AM46 °FClear.10 mph83%30.31 "Hg9 mi
1:00 AM46 °FClear.10 mph83%30.28 "Hg6 mi
12:00 AM46 °FClear.13 mph80%30.27 "Hg7 mi
11:00 PM
Fri, Apr 17
46 °FClear.13 mph79%30.24 "Hg9 mi
10:00 PM46 °FClear.12 mph76%30.23 "Hg11 mi
9:00 PM46 °FClear.12 mph74%30.20 "Hg10 mi
8:00 PM46 °FSunny.12 mph70%30.19 "Hg19 mi
7:00 PM47 °FSunny.10 mph77%30.17 "Hg8 mi
6:00 PM47 °FSunny.10 mph78%30.16 "Hg13 mi
5:00 PM47 °FSunny.12 mph76%30.16 "Hg11 mi
4:00 PM47 °FPassing clouds.10 mph76%30.15 "Hg3 mi
3:00 PM46 °FSunny.9 mph75%30.15 "Hg5 mi
2:00 PM47 °FScattered clouds.9 mph73%30.14 "Hg4 mi
Weather by CustomWeather, © 2015

See weather overviewHow to use our weather pages